Theta_e
316 316 316 316 317 317 318 318 318 318 318 318 317 317 317 317 318 318 318 317 316 315 313 312 312 312 312 312 312 312 313 314 314 313 313 312 311 311 311 311 311 311 311 311 310 309 308 308 307 307 306 306 306 307 307 308 308 309 309 308 308 308 307 307 308 308 308 308 308 308 308 307 306 305 305 304 304 304 304 304 304 304 304 304 303 303
316 316 316 316 317 317 318 318 318 318 317 317 317 317 317 318 318 318 317 316 315 314 313 312 312 311 312 311 312 312 312 313 313 312 312 311 310 310 310 310 310 310 310 310 310 309 308 307 306 306 306 306 305 305 306 306 307 307 307 307 307 307 307 307 307 307 307 307 307 307 306 305 305 304 304 303 303 303 303 303 303 303 303 303 302 302
315 315 316 316 317 317 317 317 317 317 317 317 317 317 318 318 318 317 316 315 314 313 312 312 311 311 311 311 311 311 311 312 312 311 311 310 310 310 310 310 310 310 310 310 309 308 307 306 306 305 305 305 305 305 304 305 305 305 305 305 305 306 306 306 306 306 306 305 305 304 304 304 303 303 302 302 302 302 302 303 302 302 302 301 301 301
315 315 315 315 316 316 316 317 317 317 317 317 317 317 317 317 317 316 315 314 313 313 312 311 311 311 311 311 310 311 311 311 311 310 310 309 309 309 309 309 310 310 309 309 308 308 307 306 305 305 304 304 304 304 304 303 303 303 304 304 304 304 304 304 304 304 303 303 303 303 302 302 302 302 302 301 301 301 301 301 301 300 300 299 299 299
315 315 315 315 315 316 316 316 317 317 317 317 317 317 317 316 316 315 314 313 313 312 311 311 311 311 310 310 310 310 310 310 310 309 309 308 308 308 309 309 309 309 309 308 308 307 306 305 305 304 304 304 303 303 303 303 302 302 302 302 302 302 302 302 302 302 302 302 301 301 301 301 301 301 301 301 300 300 300 300 299 298 298 297 297 297
314 314 315 315 315 316 316 316 317 317 318 318 317 317 316 316 316 315 314 313 312 312 311 311 310 310 310 309 309 309 309 309 309 308 308 308 308 308 308 308 309 309 308 308 307 307 306 305 304 304 303 303 303 302 302 302 302 301 301 301 301 301 301 301 301 301 300 300 300 300 300 300 300 300 300 300 299 299 298 298 297 296 295 295 294 294
314 314 315 315 316 316 317 317 318 318 318 317 317 317 316 316 315 315 314 313 312 311 310 310 310 309 309 309 308 308 308 308 308 308 307 307 307 308 308 308 308 308 308 308 307 306 305 304 304 303 303 302 302 302 302 301 301 301 301 301 301 300 300 300 300 299 299 299 299 299 299 299 299 299 299 298 298 297 297 296 295 294 294 293 292 292
315 315 315 316 316 316 317 317 318 318 317 317 316 316 316 316 315 315 314 313 311 310 309 309 308 308 308 308 308 307 307 307 307 307 307 307 307 307 307 307 307 307 307 307 307 306 305 304 303 303 302 302 302 302 302 301 301 301 301 301 300 300 299 299 298 298 298 298 298 298 298 298 298 297 297 297 296 295 295 294 293 293 292 291 291 291
315 315 315 316 316 317 317 317 317 317 317 316 316 316 317 316 316 314 313 312 310 309 308 308 307 307 307 307 307 307 307 307 307 306 306 306 306 306 306 306 306 307 307 307 306 305 304 303 303 302 302 302 302 302 301 301 301 300 300 299 299 298 298 297 296 296 296 295 295 296 296 296 296 295 295 295 294 293 293 292 291 291 291 290 290 290
315 315 315 315 316 316 316 317 317 317 316 316 316 316 316 316 315 313 312 310 309 309 308 307 307 307 307 306 306 306 306 306 306 306 306 306 306 306 306 305 306 306 306 306 305 304 303 303 302 302 302 302 302 301 301 300 300 299 298 297 296 296 295 294 294 293 293 293 293 293 293 294 293 293 293 292 292 292 291 291 290 290 290 290 290 290
314 314 314 314 315 315 315 316 316 316 316 315 315 314 314 314 313 312 311 310 309 308 307 307 307 306 306 306 306 306 306 306 306 306 306 305 305 305 305 305 305 305 305 305 304 304 303 302 302 302 302 302 301 301 300 299 298 296 295 294 294 293 292 292 291 291 291 291 291 291 292 292 291 291 291 291 291 290 290 290 290 290 289 289 289 289
313 313 313 313 314 314 315 315 315 315 314 314 314 313 312 312 312 311 310 310 309 308 308 307 307 306 306 306 305 305 306 305 305 305 305 305 304 304 304 304 304 304 304 304 304 303 302 302 302 302 302 301 301 299 298 296 295 294 293 292 291 291 290 290 290 289 290 290 290 290 290 290 290 290 290 290 290 290 290 290 290 289 289 289 289 289
312 312 312 312 313 313 314 314 314 314 313 313 313 313 313 313 312 311 310 309 309 309 308 307 307 306 306 306 306 305 305 305 305 305 305 304 304 304 303 303 303 304 304 304 303 302 302 302 302 302 301 300 299 297 295 293 292 291 291 290 290 290 289 289 289 289 289 289 289 290 290 290 290 290 290 290 290 290 290 290 290 289 289 289 289 289
310 311 311 311 311 312 313 313 313 313 313 313 313 313 313 313 312 311 310 309 308 308 308 307 307 306 306 306 306 305 305 305 305 305 304 304 304 303 303 303 303 303 303 303 302 302 301 301 301 301 300 299 297 294 292 291 290 290 289 289 289 289 289 289 289 289 289 289 289 289 289 290 290 290 290 290 290 290 290 290 289 289 289 289 289 289
310 309 309 310 310 311 311 312 312 312 312 311 311 311 311 311 311 310 310 309 308 308 307 307 306 306 305 305 305 305 305 305 304 304 304 303 303 303 303 303 303 303 302 302 301 301 301 300 300 299 298 296 294 292 291 290 289 289 289 289 289 289 289 289 289 289 289 289 289 289 289 289 290 290 290 290 290 290 290 290 289 289 289 289 289 289
310 309 309 309 309 310 310 310 310 311 310 310 310 309 309 310 310 310 309 309 308 308 307 306 305 305 305 305 304 304 304 304 304 304 303 303 303 303 303 303 302 302 302 301 301 300 300 300 299 298 296 294 292 291 290 289 289 289 289 289 289 289 289 289 289 289 289 289 289 289 289 289 289 290 290 290 290 290 290 290 290 289 289 289 289 289
309 309 309 309 308 309 309 309 310 310 310 309 309 309 309 309 309 309 309 309 308 308 307 306 305 304 304 304 304 304 304 304 304 303 303 303 303 302 302 302 302 301 301 300 300 300 299 299 298 296 295 293 291 290 289 289 289 289 289 289 289 289 288 288 288 288 289 289 289 289 289 289 289 289 290 290 290 290 290 290 290 290 290 290 290 290
309 309 309 308 308 308 309 309 310 310 310 309 309 309 308 308 309 308 308 308 308 307 307 306 306 305 305 304 304 304 304 304 303 303 303 303 302 302 302 302 301 301 300 300 299 299 299 298 297 295 293 291 290 289 289 289 289 289 289 289 288 288 288 288 288 288 289 289 289 289 289 289 289 289 289 289 290 290 290 290 290 290 290 290 290 290
308 309 309 308 308 308 308 309 310 310 311 310 310 309 309 308 308 308 307 307 307 307 307 306 306 305 305 305 305 305 304 304 303 303 303 303 302 302 301 301 301 300 300 299 299 299 298 297 296 294 292 291 290 289 289 289 289 289 289 288 288 288 288 288 288 288 289 289 289 289 289 289 289 289 289 290 290 290 290 290 290 290 290 290 290 290
307 308 308 308 308 307 308 308 310 310 311 311 310 309 308 308 307 307 307 306 307 306 306 306 306 305 304 305 305 305 304 304 303 303 303 303 302 302 301 301 300 300 299 299 299 298 297 296 294 293 291 290 289 289 289 288 289 289 288 288 288 288 288 288 288 288 289 289 289 289 289 289 289 289 289 289 290 290 290 290 290 290 290 290 290 290
306 306 307 307 307 307 306 307 308 309 310 310 309 309 308 307 306 306 306 306 306 306 305 305 305 304 304 305 306 305 304 303 303 302 303 303 302 301 301 300 300 300 299 299 299 298 296 295 293 292 290 290 289 289 288 288 288 288 288 288 288 288 288 288 288 288 289 289 289 289 289 289 289 289 289 290 290 290 290 290 290 290 290 290 290 290
305 305 306 306 306 306 306 306 307 308 309 309 308 308 307 306 306 305 305 305 305 305 305 304 304 304 304 305 305 304 303 303 302 302 302 302 302 301 300 300 300 299 299 299 298 297 295 293 292 291 290 289 289 289 288 288 288 288 288 288 288 288 288 288 288 288 288 288 289 289 289 289 289 289 289 290 290 290 290 290 290 290 290 290 290 290
305 305 305 305 305 305 305 305 306 307 308 308 307 306 306 305 305 305 305 304 304 304 304 304 304 304 304 304 304 303 302 302 302 301 301 301 301 301 300 300 299 299 298 298 297 295 293 292 291 290 289 289 289 288 288 288 288 288 288 287 287 288 288 288 288 288 288 288 288 289 289 289 289 289 290 290 290 290 290 290 290 290 290 290 290 290
304 304 304 304 304 304 304 305 306 307 307 306 306 305 304 304 303 303 303 303 303 304 304 304 304 304 304 303 303 302 301 301 301 301 301 300 301 301 300 300 299 298 298 297 296 294 292 291 290 289 289 288 288 288 288 288 288 288 287 287 287 288 288 288 288 288 288 288 289 289 289 289 289 290 290 290 290 290 290 290 290 290 290 290 290 290
304 304 303 303 304 304 304 305 305 305 305 305 304 303 303 302 302 302 302 302 302 303 303 303 303 302 302 302 302 301 301 300 300 300 300 300 300 301 300 299 298 297 297 296 294 292 290 290 289 289 288 288 288 288 288 288 288 287 287 287 288 288 288 288 288 288 288 289 289 289 289 289 289 290 290 290 290 290 290 290 290 290 290 290 290 290
304 304 304 303 304 304 304 304 304 304 304 303 303 303 302 302 301 301 301 301 301 302 302 302 301 301 302 301 301 301 301 300 300 300 300 300 300 301 300 299 297 296 295 294 292 291 290 289 289 288 288 288 288 288 288 288 288 287 287 287 288 288 288 288 288 288 288 289 289 289 289 289 289 290 290 290 290 290 290 290 290 290 290 290 290 290
303 303 303 303 303 303 303 303 303 303 303 302 302 302 302 302 301 301 301 301 301 301 301 301 301 300 301 301 300 300 300 300 300 300 300 300 300 300 299 298 296 295 294 292 291 290 289 288 288 288 287 287 288 288 287 287 287 288 287 288 288 288 288 288 288 288 288 289 289 289 289 289 289 289 290 290 290 290 290 290 290 290 290 290 290 291
302 302 302 302 302 302 302 302 302 302 302 302 302 302 302 301 301 301 301 301 301 301 301 300 300 300 300 300 300 300 300 300 300 300 300 299 299 299 298 296 295 293 292 291 290 289 288 288 288 287 287 287 287 287 288 288 288 288 288 288 288 288 288 288 288 288 288 289 289 289 289 289 289 289 289 289 290 290 290 290 290 290 290 290 290 291
302 302 302 302 302 302 302 302 302 302 301 301 301 301 301 301 301 302 302 302 301 301 300 300 300 300 300 301 301 300 300 300 300 300 300 299 299 298 297 295 293 292 290 290 289 288 288 287 287 287 287 287 287 288 288 288 288 288 288 288 288 288 288 288 288 288 288 288 289 289 289 289 289 289 289 289 289 290 290 290 290 290 290 290 290 291
302 302 302 302 302 302 302 302 302 301 301 301 301 301 301 301 301 301 301 302 301 301 301 300 300 300 300 301 301 300 300 300 300 300 299 298 298 297 295 293 291 290 289 289 288 288 287 287 287 287 287 287 287 288 288 288 288 288 288 288 288 288 288 288 288 288 288 288 288 288 289 289 289 289 289 289 289 289 290 290 290 290 290 290 290 290
302 302 302 301 301 301 301 302 301 301 301 300 300 300 301 301 301 301 301 301 301 301 301 300 300 301 301 301 301 301 300 300 300 299 299 297 296 295 293 291 290 289 289 288 288 287 287 287 287 287 287 287 287 288 288 288 288 288 288 288 288 288 288 288 288 288 288 288 288 288 289 289 289 289 289 289 289 289 289 290 290 290 290 290 290 290
301 301 301 301 301 301 301 301 301 301 301 301 300 300 301 301 301 301 301 301 301 300 300 301 301 302 302 302 301 301 301 301 300 298 298 296 295 293 291 290 289 289 288 288 287 287 287 287 287 287 287 287 287 287 288 288 288 288 288 288 288 288 288 288 288 288 288 288 288 288 289 289 289 289 289 289 289 289 289 290 290 290 290 290 290 290
301 301 301 301 301 301 301 301 301 301 301 301 301 301 301 301 301 301 301 301 300 300 300 300 301 301 301 301 300 300 300 299 298 297 296 294 293 291 290 289 288 288 288 287 287 287 287 288 288 288 288 287 287 287 288 288 288 288 288 289 289 289 289 289 289 289 289 289 289 289 289 289 289 289 289 289 289 289 289 290 290 290 290 290 290 290
300 300 300 300 300 300 300 300 300 300 300 300 300 300 300 300 300 300 300 300 300 300 300 300 299 299 298 298 297 297 296 296 295 294 293 292 291 290 289 288 288 288 287 287 287 287 287 288 288 288 288 288 288 288 288 288 288 288 289 289 289 289 289 289 289 289 289 289 289 289 289 289 289 289 289 289 289 289 289 289 290 290 290 290 290 290
298 298 298 298 298 298 299 299 299 299 299 299 299 299 299 300 300 300 300 300 300 299 299 298 298 297 296 295 294 294 293 293 292 291 291 290 290 289 288 288 288 287 287 287 287 287 287 288 288 288 288 288 288 288 288 288 289 289 289 289 289 289 289 289 289 289 289 289 289 289 289 289 289 289 289 289 289 289 289 289 289 289 290 290 290 290
296 295 296 296 296 296 296 297 297 297 297 297 297 297 298 298 298 299 299 298 298 298 297 296 295 294 293 293 292 291 291 290 290 290 290 289 289 288 288 288 288 287 287 287 287 288 288 288 288 288 288 288 288 289 289 289 289 289 289 289 289 289 289 289 289 290 290 290 290 290 290 290 290 290 289 289 289 289 289 289 289 289 289 289 289 290
293 293 293 293 294 294 294 294 295 295 295 295 295 295 295 296 296 296 296 296 296 295 294 293 293 292 291 291 290 290 289 289 289 289 289 288 288 288 288 287 287 287 288 288 288 288 288 288 288 288 288 288 289 289 289 289 289 289 289 289 289 289 289 289 290 290 290 290 290 290 290 290 290 290 290 289 289 289 289 289 289 289 289 289 289 289
291 291 291 291 291 292 292 292 292 293 293 293 293 293 293 293 294 294 294 293 293 292 291 291 290 290 289 289 289 289 288 288 288 288 288 288 288 288 288 287 287 288 288 288 288 288 288 288 288 288 289 289 289 289 289 289 289 289 289 289 289 289 289 290 290 290 290 290 290 290 291 291 290 290 290 290 290 290 289 289 289 289 289 289 289 289
289 289 289 289 290 290 290 290 290 291 291 291 291 291 291 291 291 291 291 291 290 290 289 289 289 289 288 288 288 288 288 288 288 288 288 288 288 288 288 288 288 288 288 288 288 288 288 288 288 288 289 289 289 289 289 289 289 289 289 289 289 289 290 290 290 290 290 290 290 291 291 291 291 291 291 290 290 290 290 290 290 289 289 289 289 289
288 288 288 288 289 289 289 289 289 289 289 290 289 289 289 289 289 289 289 289 289 288 288 288 288 288 288 288 288 288 288 288 288 288 288 288 288 288 288 288 288 288 288 288 288 288 288 288 288 288 288 288 289 289 289 289 289 289 289 289 290 290 290 290 290 290 290 290 291 291 291 291 291 291 291 291 291 290 290 290 290 289 289 289 289 289
288 288 288 288 288 288 288 289 288 288 289 289 289 289 289 288 288 288 288 288 288 288 288 287 287 287 287 287 287 287 287 287 287 288 287 288 288 288 288 288 288 288 288 288 288 288 288 288 288 288 288 288 289 289 289 289 289 289 289 289 289 290 290 290 290 290 290 291 291 291 291 292 292 292 292 292 291 291 291 290 290 290 289 289 289 289
288 288 288 288 288 288 288 288 288 288 288 288 288 288 288 288 288 288 288 288 288 287 287 287 287 287 287 287 287 287 287 287 287 287 287 287 287 287 287 288 288 288 288 288 288 288 288 288 288 288 288 289 289 289 289 289 289 289 289 289 289 289 290 290 290 290 291 291 291 291 292 292 293 293 293 293 292 292 291 291 291 290 290 289 289 289
288 288 288 288 288 288 288 288 288 288 288 288 288 288 288 288 288 287 287 287 287 287 287 287 287 287 287 287 287 287 287 287 287 287 287 287 287 287 287 287 287 288 288 288 288 288 288 288 288 288 289 289 289 289 289 289 289 289 289 289 289 289 290 290 290 290 291 291 291 292 292 293 293 293 293 293 292 292 291 291 291 290 290 290 289 289
288 288 288 288 288 288 288 288 288 288 288 288 288 288 287 287 287 287 287 287 287 287 287 287 287 286 286 287 287 287 287 287 287 287 287 287 287 287 287 287 287 287 287 288 288 288 288 288 288 288 288 288 288 288 289 289 289 289 289 289 289 289 290 290 291 291 291 291 292 292 293 293 293 293 293 293 292 292 292 291 291 290 290 289 289 289
288 288 288 288 288 288 288 288 288 288 288 287 287 287 287 287 287 287 287 286 286 286 286 286 286 286 286 286 286 286 287 287 287 287 287 287 287 287 287 287 287 287 287 287 287 287 287 287 288 288 288 288 288 288 288 288 288 288 288 289 289 289 290 290 291 291 291 291 292 292 293 293 293 293 293 293 293 292 292 291 291 290 290 289 289 288
288 288 288 288 288 288 288 288 287 287 287 287 287 287 287 287 286 286 286 286 286 286 286 286 286 286 286 286 287 287 287 287 287 287 287 287 287 287 287 287 287 287 287 287 287 287 287 287 288 288 288 288 288 288 288 288 288 288 288 289 289 289 289 290 291 291 292 292 293 293 293 293 293 293 293 293 292 292 292 291 290 290 289 289 289 288
288 288 288 288 288 287 287 287 287 287 287 287 286 286 286 286 286 286 286 286 286 286 286 286 286 286 286 287 287 287 287 287 287 287 287 287 287 287 287 287 287 287 287 287 287 287 287 288 288 288 288 288 288 288 288 288 288 288 289 289 289 289 290 290 291 291 292 292 293 294 294 293 293 293 293 293 292 292 292 291 290 289 289 289 288 288
288 288 288 287 287 287 287 287 287 287 286 286 286 286 286 286 286 286 286 286 286 286 286 286 286 286 286 287 287 287 287 287 287 287 287 287 287 287 287 287 287 287 287 287 287 287 288 288 288 288 288 288 288 288 288 288 288 288 289 289 290 290 291 291 291 292 292 293 293 294 294 294 293 293 293 293 292 292 291 290 290 289 289 288 288 288
288 288 287 287 287 287 286 286 286 286 286 286 286 286 286 286 286 286 286 286 286 286 286 286 286 287 287 287 287 287 287 287 288 288 288 288 288 288 288 288 287 287 287 287 287 287 287 287 287 288 288 288 288 288 288 288 289 289 289 290 290 291 291 292 292 292 293 293 293 293 293 293 293 293 293 292 292 292 291 290 289 289 288 288 288 288
287 287 287 287 286 286 286 286 286 286 286 286 286 286 286 286 286 286 286 286 286 286 287 287 287 287 287 287 287 287 287 288 288 288 288 288 288 288 288 288 287 287 287 287 287 287 287 287 287 287 288 288 288 288 288 289 289 290 290 291 291 291 292 292 293 293 293 293 293 293 293 293 292 292 292 292 291 291 291 290 289 289 289 288 288 288
287 287 287 287 286 286 286 286 286 286 286 286 286 286 286 286 286 286 286 286 286 287 287 287 287 287 287 287 288 288 288 288 288 288 288 288 288 288 288 288 287 287 287 287 287 287 287 287 287 287 288 288 288 289 289 290 290 291 291 291 292 292 292 292 293 293 293 293 293 293 292 292 292 292 291 291 291 290 290 290 289 289 289 288 288 288
Wind_Speed
27 27 26 25 24 24 24 24 25 26 26 24 22 21 19 19 20 21 21 21 22 22 22 22 22 22 22 21 19 17 16 16 16 18 18 19 19 18 18 17 16 15 14 13 12 12 11 12 12 12 13 15 17 20 22 23 23 23 22 20 19 19 18 18 19 21 22 23 24 23 23 22 20 18 17 16 16 15 15 14 12 11 9 8 8 8
27 27 26 25 25 24 25 25 25 26 25 24 22 20 19 19 20 20 21 21 21 21 21 21 21 21 20 20 18 17 16 16 17 18 18 19 18 18 17 17 16 15 14 13 12 11 11 11 12 12 12 14 15 17 19 21 22 22 22 22 22 22 22 22 22 23 23 24 23 23 21 20 18 16 15 15 15 14 14 13 11 10 9 8 8 8
29 28 27 26 25 25 25 25 25 25 24 22 20 19 19 19 19 19 19 19 19 19 19 20 20 20 19 19 18 18 18 18 18 18 19 18 18 18 17 16 15 14 13 13 12 11 11 11 11 12 12 13 14 15 16 17 18 18 19 20 20 21 21 22 22 22 22 21 21 20 18 17 16 15 15 14 14 14 13 12 11 10 9 9 9 9
29 28 27 25 25 24 24 24 24 23 22 21 20 19 19 19 18 18 17 17 17 17 18 19 19 19 18 18 18 19 19 19 19 19 18 18 18 17 17 16 15 14 13 13 12 11 11 11 11 12 12 13 13 14 14 14 14 15 15 16 17 18 18 19 19 19 19 18 18 17 17 16 15 15 15 14 14 14 13 12 11 11 10 9 10 10
28 28 26 24 24 23 23 23 23 22 21 21 21 20 19 18 17 16 15 15 15 16 17 18 18 18 18 18 19 19 20 19 19 19 18 18 17 17 16 15 15 14 13 13 12 11 11 11 11 12 13 13 13 13 13 13 13 13 14 14 15 16 16 17 17 17 17 17 17 17 17 16 16 16 15 15 14 14 14 13 12 11 10 10 10 11
28 27 26 24 23 23 22 22 22 22 22 22 21 20 18 16 15 15 14 15 15 16 17 17 18 18 17 18 19 20 20 20 19 18 18 17 17 17 16 15 14 14 13 13 12 11 11 11 12 13 13 13 13 13 13 13 13 13 14 14 15 16 17 17 18 18 18 18 18 18 18 17 17 16 16 16 15 15 15 14 13 12 11 11 11 11
28 28 26 24 23 22 22 22 22 22 22 22 20 18 16 15 15 14 15 16 16 17 18 18 18 18 18 18 19 20 20 20 19 18 18 18 17 16 16 15 14 14 14 13 12 11 11 12 12 13 13 14 14 13 13 13 13 14 15 15 16 17 18 19 19 19 19 19 19 19 19 18 18 17 17 17 16 16 15 15 14 13 12 11 11 11
29 28 27 26 24 23 22 22 22 22 22 20 18 17 16 16 16 16 16 17 17 18 19 19 19 19 19 20 20 21 20 20 20 19 19 18 17 16 15 15 14 15 14 13 12 11 11 12 13 13 14 14 14 14 14 14 14 15 15 16 17 18 19 20 20 20 20 20 20 20 19 19 18 18 18 17 17 16 15 14 14 13 12 12 11 11
29 29 28 26 24 22 22 22 22 22 21 19 18 17 17 18 18 19 19 19 19 20 20 21 21 21 21 21 21 22 21 21 21 20 20 19 18 17 15 15 15 15 15 14 12 11 12 12 13 14 14 14 14 14 14 14 15 16 16 17 18 19 20 20 20 20 20 20 20 19 19 19 18 18 17 17 16 15 15 14 13 13 12 11 11 10
30 29 28 26 24 22 20 20 21 21 20 19 19 19 19 20 20 20 20 21 21 21 22 22 22 22 23 23 23 23 23 22 22 21 21 19 18 17 16 15 16 16 15 13 11 11 12 13 13 14 14 14 14 14 14 15 16 16 17 17 18 19 20 20 19 19 19 18 18 18 18 17 17 17 16 16 15 14 14 13 12 12 11 11 10 10
31 30 28 26 24 22 21 20 20 20 19 19 19 20 20 20 20 20 20 21 21 22 23 23 23 23 24 24 24 24 23 23 23 22 21 19 18 17 16 16 16 16 15 13 11 10 11 12 13 14 14 14 14 14 15 15 16 16 16 17 17 18 18 18 17 17 17 16 16 16 16 16 15 15 14 14 13 13 12 12 11 11 11 10 10 10
31 30 29 27 25 23 22 21 21 20 19 19 19 20 20 20 20 19 19 20 21 22 23 23 23 24 25 25 25 24 24 24 23 22 21 20 18 17 17 17 17 17 16 14 11 11 11 12 13 14 14 14 14 14 14 15 15 15 16 16 16 16 16 16 15 15 14 14 14 14 14 14 13 13 12 12 11 11 11 11 10 10 10 10 10 10
32 31 30 28 27 25 24 23 22 22 21 21 20 20 20 20 19 19 19 19 20 21 22 23 24 24 24 25 25 25 25 24 23 23 21 20 19 18 18 18 18 18 17 15 12 11 12 12 13 13 13 13 13 13 14 14 14 14 14 15 15 15 14 14 13 13 13 12 12 12 12 12 12 11 11 10 10 10 10 10 10 10 10 10 10 10
31 31 30 29 28 27 26 25 24 23 22 22 22 21 21 20 20 20 20 20 21 22 22 23 24 25 25 25 25 25 25 25 24 23 22 21 20 20 19 19 19 19 17 15 13 12 12 13 13 13 13 13 13 13 13 13 13 13 13 13 13 13 13 12 12 11 11 11 11 11 11 11 10 10 9 9 9 9 9 9 9 10 10 10 10 10
31 30 29 29 28 28 27 26 24 24 23 22 22 21 21 21 21 21 22 22 23 23 23 24 25 25 25 26 26 25 25 25 25 24 23 22 21 20 20 19 19 18 17 15 14 13 13 13 13 13 13 13 12 12 12 12 12 12 12 13 13 12 12 11 11 11 10 10 10 10 10 10 9 9 9 8 9 9 9 9 9 10 10 10 10 10
30 30 29 29 28 28 27 26 24 23 22 22 22 22 23 23 23 23 23 24 24 25 25 25 26 27 27 27 26 26 26 26 25 25 24 23 22 21 20 19 18 18 17 16 15 14 14 14 14 13 13 12 12 12 12 12 12 12 12 12 12 12 11 11 10 10 10 10 10 10 9 9 9 9 8 8 8 9 9 9 9 10 10 10 10 10
29 29 29 28 27 27 27 25 24 23 22 22 22 23 23 24 24 24 25 25 25 25 25 26 27 29 29 28 28 27 26 26 25 25 24 23 22 21 20 19 18 18 17 16 15 15 14 14 14 13 13 12 12 11 11 11 11 11 12 12 12 11 11 10 10 10 10 10 9 9 9 9 9 8 8 8 8 8 9 9 9 9 9 10 9 9
29 29 28 27 27 27 27 25 24 24 23 23 23 23 23 24 24 25 25 25 25 25 25 25 26 28 30 30 29 28 27 26 25 25 24 23 22 21 20 19 18 18 17 17 16 15 14 14 14 14 13 12 11 11 11 11 11 11 11 11 11 10 10 10 9 9 9 9 9 9 9 9 9 8 8 8 8 8 8 8 9 9 9 9 9 9
28 28 28 27 26 26 26 26 26 25 25 24 24 24 24 25 25 25 26 25 24 24 24 24 25 26 28 30 29 27 25 25 25 25 25 23 22 21 20 19 18 18 18 17 16 15 14 15 14 14 13 12 12 11 12 11 11 11 11 11 10 10 9 9 9 9 9 9 9 9 9 9 9 8 8 8 8 8 8 8 8 8 8 8 8 8
27 27 27 26 26 25 26 26 27 26 26 25 25 24 25 25 25 25 25 25 24 23 22 23 24 26 27 28 27 25 24 24 24 25 24 23 21 20 20 19 18 18 18 17 16 15 15 15 15 14 13 12 12 12 12 12 11 11 11 10 10 10 9 9 9 9 9 9 9 9 9 9 9 8 8 8 8 7 7 7 7 7 7 7 7 7
26 26 26 26 24 24 25 26 26 26 26 25 25 25 25 25 25 25 25 24 24 23 23 24 25 26 27 27 25 23 23 23 24 24 23 21 20 20 19 19 18 18 18 17 16 15 15 15 15 14 13 12 12 12 12 12 11 11 10 10 10 9 10 9 9 9 9 9 9 9 9 9 8 8 8 8 7 7 7 7 7 7 7 7 7 7
25 25 25 24 24 23 23 24 25 26 26 25 25 24 24 24 24 25 25 24 24 24 25 26 26 27 26 25 23 21 21 22 22 22 22 21 20 19 19 18 18 18 18 17 16 15 15 15 15 14 13 13 12 12 12 12 11 11 10 10 10 10 10 10 10 10 10 10 9 9 9 9 8 8 8 7 7 7 7 7 7 7 7 7 7 7
25 24 24 23 23 23 23 24 25 26 26 25 23 22 22 21 22 23 24 24 25 25 26 26 26 25 25 23 22 20 19 20 20 20 21 21 20 19 19 18 18 18 19 18 16 15 15 15 15 14 13 13 13 12 12 12 11 11 10 10 10 10 10 10 10 10 10 10 9 9 9 9 8 8 8 7 7 7 7 7 6 6 6 7 7 7
24 24 23 23 23 24 24 25 26 25 24 23 21 20 20 20 20 21 22 23 24 25 25 25 25 25 24 23 22 20 19 19 19 20 20 21 20 19 18 18 18 18 19 18 16 15 15 15 15 14 13 13 13 13 12 12 11 11 10 10 10 10 10 10 10 10 10 10 10 9 9 9 8 8 8 7 7 7 7 7 6 6 6 7 7 7
24 24 24 24 25 25 25 25 24 23 21 20 20 19 19 19 20 20 21 22 24 24 25 25 25 25 25 24 22 21 20 19 19 20 20 21 20 18 17 18 18 19 19 18 16 15 15 15 15 14 14 13 13 13 12 12 11 11 10 10 10 11 10 10 10 10 10 10 10 10 9 9 8 8 8 8 7 7 7 7 7 7 7 7 7 7
24 25 25 25 25 24 23 22 21 20 19 18 18 19 19 19 20 20 21 23 24 24 24 25 25 26 25 24 22 21 20 20 20 20 20 21 20 18 17 18 18 19 19 17 15 15 15 15 15 14 14 14 13 13 12 12 11 11 11 11 11 11 11 11 10 10 10 10 10 10 9 9 9 8 8 8 8 7 7 7 7 7 7 7 7 7
22 23 24 24 23 22 21 20 19 18 17 17 17 18 18 19 19 20 22 23 24 24 24 25 26 26 25 24 23 22 21 20 20 20 20 20 19 18 17 17 18 18 18 17 16 15 16 15 15 14 14 14 13 13 12 12 11 11 11 11 11 11 11 11 11 11 11 11 10 10 10 9 9 9 8 8 8 8 8 7 7 7 7 7 7 7
20 20 21 21 20 19 19 18 17 17 17 16 16 17 17 18 19 21 22 23 23 23 23 24 25 26 25 24 23 22 21 21 21 20 20 19 19 18 17 17 18 18 18 17 16 16 16 15 15 14 14 14 13 13 13 12 12 12 12 12 12 12 12 11 11 11 11 11 10 10 10 9 9 9 8 8 8 8 8 8 8 8 8 7 7 7
18 18 19 18 18 18 17 17 17 16 16 16 15 16 17 18 19 20 21 22 22 22 23 24 24 25 24 24 23 22 21 21 21 20 20 19 19 19 18 18 18 18 18 17 16 16 16 15 15 14 14 14 14 13 13 12 12 12 12 12 12 12 12 12 11 11 11 11 10 10 9 9 9 9 8 8 8 8 8 8 8 8 8 8 7 7
18 18 18 18 17 17 17 16 16 16 15 15 15 16 16 17 18 19 20 20 21 22 23 23 24 24 24 23 22 22 22 22 22 21 20 20 20 20 19 18 18 18 18 17 16 16 16 16 15 15 15 14 14 14 13 13 13 13 13 13 12 12 12 11 11 11 11 10 10 10 9 9 9 9 9 9 9 9 8 8 8 8 8 8 8 8
18 18 18 18 17 17 17 16 16 16 15 15 15 16 17 17 18 19 19 19 20 21 22 23 24 23 23 23 23 23 24 23 22 21 21 20 20 20 19 18 18 18 17 17 17 17 17 17 16 15 15 15 14 14 14 13 13 13 13 13 13 12 12 11 11 10 10 10 10 9 9 9 9 10 10 10 10 9 9 9 9 8 8 8 8 8
18 18 18 18 18 17 17 16 16 16 16 16 16 16 16 17 17 18 18 18 19 20 21 22 22 21 20 20 21 22 23 22 21 21 21 21 20 20 18 18 18 18 17 17 17 17 16 17 16 16 15 15 15 14 14 14 13 13 13 13 12 12 11 11 10 10 10 10 9 9 9 9 10 10 10 10 10 10 10 9 9 9 9 9 9 9
19 18 18 18 18 17 16 16 16 15 15 15 15 16 16 16 16 17 17 18 18 19 20 20 19 18 18 18 19 20 20 20 20 20 20 20 20 19 18 17 17 17 17 17 17 17 16 16 16 15 15 15 15 14 14 14 13 13 13 12 11 11 11 11 10 10 9 9 9 9 9 9 9 10 10 10 10 10 10 10 10 10 10 10 9 9
19 19 18 18 18 17 17 16 16 15 15 15 15 15 15 16 16 17 17 18 18 19 19 18 18 17 17 18 19 19 19 18 18 19 19 20 19 18 17 17 17 17 17 17 18 18 17 15 14 15 15 15 15 14 14 14 13 13 12 12 11 10 10 10 10 9 9 9 9 8 8 9 9 9 9 10 10 10 10 10 10 10 10 10 10 10
19 19 19 18 18 18 17 17 16 16 16 16 16 16 16 17 17 18 18 19 19 19 19 19 19 18 18 19 19 19 18 16 17 19 19 19 18 17 17 17 17 17 17 18 18 18 17 16 15 14 15 15 15 14 14 13 13 12 12 11 11 10 10 10 9 9 8 8 8 8 8 8 8 8 8 9 9 9 10 10 10 10 10 10 11 11
20 19 19 19 19 18 18 18 18 18 17 17 17 18 18 18 18 19 19 19 20 19 19 19 19 19 19 19 19 17 16 15 16 18 19 18 17 17 16 17 17 17 17 18 18 18 17 16 16 15 15 15 15 14 14 13 13 12 12 11 11 10 10 9 9 8 8 8 8 8 8 8 8 8 8 8 9 9 10 10 10 10 11 11 11 11
20 20 20 20 20 19 19 19 19 19 19 19 19 19 19 19 19 20 20 20 20 19 19 19 19 19 19 18 17 15 14 15 16 18 18 17 17 16 16 16 17 17 17 17 17 17 17 16 16 15 15 15 15 14 13 13 13 12 12 11 11 10 10 9 9 9 8 8 8 8 8 7 7 8 8 8 8 9 9 10 10 11 11 11 11 12
21 21 21 21 20 20 20 20 20 20 20 20 20 20 20 20 20 20 20 20 20 19 19 18 18 18 18 17 16 15 15 16 17 17 17 17 17 17 17 17 17 17 17 17 17 17 16 16 16 15 15 15 14 14 13 13 13 12 12 11 11 10 10 9 9 9 9 8 8 8 8 7 7 7 8 8 8 9 9 10 10 11 11 12 12 12
21 21 21 21 21 21 21 21 21 21 21 21 20 20 20 20 20 20 20 20 20 19 19 18 18 18 17 17 16 16 16 17 17 17 17 17 17 17 17 17 17 17 17 17 16 16 16 15 15 15 14 14 14 14 13 13 13 13 12 12 11 11 10 10 10 9 9 9 8 8 8 7 7 7 7 8 8 9 10 10 11 11 12 12 12 13
21 21 21 21 21 21 21 21 22 21 21 20 20 20 20 20 20 20 20 20 19 19 19 18 18 18 17 17 17 17 17 17 17 17 17 17 17 17 17 17 17 17 17 16 16 16 16 15 15 14 14 14 14 14 13 13 13 13 12 12 12 11 11 10 10 10 9 9 9 8 8 8 7 7 7 8 8 9 10 10 11 11 12 12 13 13
21 21 21 21 21 21 22 22 21 20 20 20 20 20 20 20 20 20 20 19 19 19 18 18 18 18 17 17 17 17 17 17 17 17 17 17 17 17 17 17 17 16 16 16 16 16 16 15 15 15 15 15 14 14 13 13 13 13 13 12 12 11 11 11 10 10 10 9 9 8 8 8 8 8 8 8 8 9 9 10 11 11 12 12 13 13
21 21 21 22 22 22 22 21 20 19 19 20 20 20 20 20 20 20 19 19 19 19 19 18 18 18 17 17 17 17 17 17 17 17 17 17 17 17 17 16 16 16 16 16 16 16 16 16 16 16 16 15 14 14 13 13 13 13 12 12 11 11 11 11 11 10 10 9 9 9 8 8 8 8 8 9 9 9 10 10 11 12 12 13 13 13
21 21 22 22 23 22 21 20 19 19 20 21 21 21 20 20 20 19 19 19 19 19 19 19 18 18 18 18 18 18 17 17 17 17 17 17 17 17 17 16 16 16 16 16 16 16 16 16 16 16 16 15 14 14 14 13 13 13 12 12 12 12 11 11 11 10 10 10 9 9 9 9 9 9 9 9 10 10 11 11 12 12 13 13 13 13
21 22 22 22 22 20 19 19 20 20 21 21 21 21 20 20 19 19 19 19 19 19 19 19 19 19 18 18 18 18 18 18 18 18 17 17 17 17 16 16 16 16 16 16 16 16 16 16 16 16 15 14 14 14 13 13 13 12 12 12 12 12 11 11 11 10 10 10 10 10 10 10 10 10 10 11 11 11 11 12 12 13 13 13 13 14
22 22 22 21 21 20 20 20 21 21 22 22 21 21 20 20 20 19 19 19 19 19 19 19 19 19 19 19 19 18 18 18 18 17 17 17 17 17 16 16 16 16 16 17 16 16 16 16 16 15 15 14 14 14 13 13 12 12 12 12 12 12 12 11 11 10 10 10 10 10 10 10 11 11 12 12 12 12 12 12 12 13 13 13 14 14
23 23 22 21 20 21 21 21 22 22 22 22 21 21 20 20 20 20 20 19 19 19 19 19 19 19 19 19 19 19 18 18 18 17 17 17 17 16 16 16 16 16 16 16 16 16 16 16 16 15 15 14 14 14 13 13 12 12 12 12 12 11 11 11 10 10 10 10 10 11 11 11 12 12 12 13 13 13 13 13 12 13 13 13 13 14
23 22 21 20 21 21 22 22 23 23 22 22 21 21 21 20 20 20 20 20 20 20 20 19 19 19 19 19 19 18 18 18 17 17 17 17 16 16 16 16 16 16 16 16 16 16 16 16 15 15 14 14 14 13 13 13 13 13 12 12 12 11 11 11 10 10 10 10 11 12 12 12 12 13 13 13 13 13 13 12 12 13 13 13 13 13
23 22 21 20 21 22 23 23 23 23 23 23 22 21 21 21 21 21 20 20 20 20 20 20 20 19 19 18 18 18 17 17 17 17 17 16 16 16 16 16 16 16 15 15 15 15 15 14 14 14 13 13 13 13 13 13 13 13 12 12 11 11 11 11 11 11 11 11 12 12 13 12 12 13 13 13 13 13 13 12 12 12 13 13 13 13
22 21 21 21 22 23 23 24 24 24 24 23 23 22 22 22 21 21 21 21 21 20 20 20 20 19 19 18 18 18 17 17 17 17 16 16 16 16 16 16 16 16 15 15 15 15 14 14 14 13 13 13 13 13 13 13 13 12 12 12 11 11 11 11 11 12 12 12 13 13 13 13 13 13 13 13 13 13 13 12 12 12 12 13 13 13
23 22 21 22 22 23 24 24 24 24 24 24 23 23 23 23 22 22 21 21 21 21 21 20 20 19 19 18 18 18 17 17 17 17 16 16 16 16 16 16 16 16 15 15 15 14 14 14 14 14 13 13 13 13 13 13 12 12 12 12 11 11 11 12 12 13 13 13 13 13 13 13 13 13 13 13 14 13 13 12 12 12 12 12 12 13
23 23 23 23 23 23 24 24 24 24 24 24 24 24 24 24 23 23 22 21 21 21 20 20 19 19 18 18 18 17 17 17 17 17 16 16 16 16 16 16 16 16 15 15 15 15 14 14 14 13 13 13 13 13 13 13 12 12 12 12 12 11 12 12 13 13 13 13 13 13 13 13 13 13 13 13 13 13 13 13 12 12 12 12 12 12
Wind_Direction
266 268 270 271 271 270 269 269 269 269 270 270 270 269 269 269 270 270 268 263 256 249 243 239 237 239 242 244 247 250 253 256 260 262 264 264 264 263 263 262 263 264 265 268 271 272 271 266 261 255 248 241 236 233 232 232 233 235 238 239 240 240 240 242 245 249 254 258 262 267 273 279 283 284 282 280 277 276 277 279 279 275 267 259 254 251
264 265 266 266 267 267 268 269 270 270 271 271 270 270 269 268 267 266 263 259 254 248 242 238 237 239 241 244 246 249 252 254 256 258 259 259 259 259 259 260 261 263 264 267 269 270 266 261 256 251 246 242 239 237 236 236 237 239 242 243 245 246 247 249 252 255 258 262 266 271 275 278 279 277 274 272 271 270 271 272 270 266 259 253 249 245
264 264 264 264 265 266 267 268 269 270 271 272 271 269 267 264 262 259 256 253 249 244 239 236 236 238 240 242 245 248 251 253 254 255 256 256 256 256 257 258 260 261 263 266 267 265 261 255 249 244 241 239 237 237 236 237 238 240 242 244 246 249 251 253 255 258 261 265 268 271 273 273 272 270 268 267 266 266 267 266 264 260 255 250 245 240
264 264 264 264 265 265 266 268 269 269 270 270 269 267 262 259 255 252 248 244 240 237 234 233 234 236 238 240 243 245 248 251 253 254 254 254 254 255 255 257 258 260 263 264 264 261 256 249 242 238 235 233 232 232 233 234 236 237 240 242 245 248 251 253 256 258 261 264 266 267 268 267 266 265 265 264 264 265 265 264 261 258 254 249 244 239
264 264 265 265 265 266 267 267 268 268 268 268 266 263 258 253 248 244 239 235 232 230 230 231 233 235 238 239 241 244 246 249 251 252 252 253 253 254 255 256 258 261 264 265 263 259 252 244 237 232 230 228 228 228 229 230 232 234 237 241 244 247 250 253 256 258 260 262 263 264 264 264 264 264 264 264 264 264 264 263 261 258 255 248 242 237
263 264 266 266 266 266 267 268 268 267 267 265 262 258 253 248 243 237 231 228 227 227 228 230 232 234 237 238 240 242 245 248 250 251 251 252 253 254 255 256 259 263 266 266 264 258 249 240 233 229 226 225 225 226 227 229 232 235 239 243 246 250 252 255 257 258 260 261 262 262 262 263 263 263 263 264 264 264 263 262 261 259 255 249 242 236
261 263 264 265 265 265 266 267 266 266 265 261 257 252 248 245 240 235 229 226 225 226 227 228 230 232 234 235 237 240 244 247 249 251 251 253 254 254 256 258 262 265 268 268 265 257 247 237 231 227 225 224 225 226 229 232 236 240 244 247 251 253 255 256 257 258 259 260 260 261 261 262 262 262 263 263 262 262 261 261 259 257 254 249 243 237
258 260 261 261 261 261 261 262 262 262 260 256 251 247 245 244 241 236 230 227 225 225 226 226 227 229 230 231 234 237 241 245 248 250 252 252 253 254 256 260 264 267 270 269 264 254 242 233 228 225 224 225 227 230 234 238 243 246 250 253 255 257 258 258 258 258 259 259 260 260 260 261 261 261 261 260 260 259 258 257 256 255 253 249 244 238
254 256 257 257 257 257 257 257 256 256 254 250 247 245 245 244 241 236 231 226 224 223 224 224 225 226 227 228 231 234 238 241 244 247 250 251 253 254 257 261 265 269 271 270 261 248 236 229 226 225 226 228 231 235 240 245 249 252 255 257 259 259 259 259 258 258 258 258 258 259 259 259 259 259 258 257 256 255 254 253 253 252 251 249 245 240
252 253 255 255 254 253 253 254 253 251 249 246 243 241 241 242 240 235 229 224 222 222 222 222 223 224 225 227 229 231 235 238 241 245 247 250 252 254 257 262 267 271 272 269 257 241 231 227 227 227 230 233 237 242 248 251 254 257 259 260 261 260 259 258 257 256 256 256 257 257 257 257 256 255 254 252 251 249 249 248 248 248 248 248 246 242
250 251 252 253 252 251 251 251 251 250 248 245 242 239 237 237 237 235 229 225 222 221 221 222 223 224 225 226 229 231 234 237 240 243 245 247 249 252 256 261 266 270 271 267 254 238 229 228 229 232 235 239 244 249 254 257 259 260 261 261 260 259 258 256 254 254 254 254 255 255 255 254 252 250 248 246 245 244 244 244 244 244 244 245 244 242
249 250 251 252 251 251 250 250 250 250 249 246 243 241 239 237 235 234 232 229 225 223 222 223 224 226 226 228 230 233 236 238 240 242 244 245 247 249 253 258 262 265 266 263 252 239 232 232 234 238 241 246 251 256 259 260 262 262 261 260 259 257 255 252 251 251 251 251 252 252 251 249 247 245 242 240 239 239 239 239 240 240 240 240 240 240
248 249 250 250 250 250 250 249 249 249 249 248 246 245 243 240 237 234 231 231 230 228 226 226 227 228 230 231 232 234 237 239 240 242 243 244 245 247 250 254 258 261 261 258 250 241 237 237 240 244 249 253 257 260 262 262 262 261 260 258 256 254 251 249 248 248 248 248 248 248 247 245 242 240 237 235 234 234 235 235 236 236 236 236 236 237
248 248 249 249 249 249 249 249 248 248 248 249 249 249 246 243 239 234 230 229 228 229 229 229 228 229 231 233 234 236 238 239 241 242 243 244 245 246 248 250 253 256 257 253 247 241 240 242 246 251 255 259 261 263 262 261 260 259 258 256 254 251 249 247 246 245 245 245 245 244 243 241 239 236 234 232 231 231 232 232 232 232 232 233 234 234
247 247 246 247 247 248 248 248 248 249 250 250 249 246 244 241 239 236 232 228 227 228 227 228 229 230 231 232 234 236 238 240 241 242 243 243 244 245 247 248 250 251 250 247 243 241 243 246 250 255 260 262 263 262 261 259 257 256 254 253 250 248 246 244 243 243 243 243 242 241 239 238 236 234 232 230 229 229 230 230 229 230 231 232 233 234
247 246 245 245 246 247 248 248 248 249 250 249 247 243 241 239 239 237 235 232 230 228 225 225 226 227 229 232 234 235 236 238 239 240 241 242 242 242 243 244 245 245 243 241 239 239 243 247 252 257 261 263 263 261 258 256 254 252 250 248 246 244 243 242 241 241 240 240 239 237 236 234 233 232 230 228 227 227 227 227 228 229 230 231 233 233
246 246 245 245 246 247 248 249 249 249 249 249 247 245 243 242 241 240 238 237 235 231 227 225 224 225 227 229 231 233 233 235 236 238 239 239 239 239 239 239 239 238 238 236 236 238 243 248 254 258 260 261 261 259 256 253 250 248 246 244 242 241 240 240 239 238 238 237 235 234 232 231 230 229 227 226 225 225 225 225 226 227 229 231 233 233
246 246 246 246 246 248 250 251 251 251 250 250 248 247 247 245 243 242 241 240 238 234 232 230 229 228 228 228 229 231 231 231 232 235 236 236 235 235 235 235 235 234 234 234 235 238 243 249 254 257 259 259 257 255 252 249 246 244 241 240 239 239 238 238 237 236 235 233 232 230 228 227 226 225 224 223 223 222 223 224 225 226 228 230 232 233
247 248 247 247 247 248 250 252 253 253 252 252 251 249 247 246 244 242 241 241 240 238 236 234 233 233 232 232 232 232 230 229 229 231 233 234 233 231 232 232 231 231 231 232 235 239 245 250 253 255 256 255 253 251 248 245 243 240 238 237 237 237 237 236 235 234 232 230 228 226 224 223 222 222 221 221 221 220 221 222 224 226 228 230 231 232
247 248 248 248 247 247 249 251 253 253 253 253 253 251 249 248 245 243 241 240 240 239 237 236 234 233 232 235 235 233 230 227 227 229 232 233 232 230 229 229 228 229 230 233 236 240 245 249 252 253 252 251 249 247 245 242 240 238 236 236 236 236 235 234 232 230 228 226 224 221 220 219 218 219 219 219 219 219 220 221 223 225 228 229 230 230
245 246 248 248 247 245 246 249 252 253 253 254 253 251 250 249 246 242 240 238 236 234 233 232 231 230 231 235 236 234 230 227 225 227 231 234 232 229 228 227 227 228 231 234 237 241 245 248 249 249 249 247 245 243 241 239 237 235 234 234 234 234 234 232 229 227 224 222 219 217 216 215 215 215 216 216 217 217 218 220 221 223 225 227 228 228
241 243 246 246 245 244 244 246 250 252 253 254 253 251 250 248 244 241 239 236 233 231 229 228 228 229 231 234 237 236 232 229 227 228 232 234 232 228 226 225 225 227 231 235 238 240 243 246 246 246 245 243 242 240 238 236 234 233 232 232 232 232 231 229 226 223 220 217 215 213 212 212 212 212 213 214 215 215 216 218 219 221 223 224 225 224
238 239 241 242 242 241 241 243 246 250 253 254 254 252 251 249 245 242 240 236 233 231 230 229 229 231 233 235 236 235 231 228 228 229 231 232 231 227 223 222 223 227 232 237 238 239 242 244 244 243 241 239 238 236 234 233 231 230 229 229 229 228 227 225 222 218 215 213 211 209 209 209 209 210 211 212 213 213 214 215 217 218 220 222 222 222
235 235 235 237 238 239 239 242 245 249 252 252 251 249 247 244 242 240 239 236 234 232 231 231 232 233 233 234 233 231 229 225 224 225 227 229 229 227 221 221 222 227 233 238 239 238 239 241 241 239 237 235 234 232 231 230 228 227 226 226 226 225 224 221 218 214 211 209 208 207 207 207 208 209 210 210 211 212 212 214 215 216 218 220 221 221
230 229 230 233 236 238 241 244 247 250 251 250 247 243 239 236 233 231 231 231 231 231 231 231 231 231 231 231 229 227 225 222 221 221 222 225 226 225 220 220 223 227 234 237 238 236 236 237 236 235 233 231 230 228 227 226 225 223 223 222 222 222 220 218 214 211 209 207 206 206 206 206 207 208 209 210 210 210 211 212 213 215 217 218 220 220
231 230 231 234 237 240 242 245 247 247 247 246 243 240 236 232 227 225 225 225 226 227 227 228 228 229 229 228 225 223 221 220 219 218 220 222 223 222 219 220 223 228 233 235 235 233 233 233 232 230 229 227 226 225 223 222 221 220 219 219 219 219 217 215 211 209 207 206 205 205 206 206 207 208 209 210 210 211 211 212 213 215 217 219 220 222
232 233 233 235 237 239 241 242 242 241 240 239 239 238 235 231 226 223 223 223 222 222 223 223 224 225 225 224 222 221 219 218 217 217 219 220 221 222 221 221 224 227 231 231 230 230 230 230 228 226 224 223 222 221 220 219 218 217 216 216 216 216 214 212 210 208 206 206 205 206 206 207 208 209 210 211 211 212 213 214 216 217 219 221 223 224
230 230 231 233 234 235 236 235 235 234 233 232 232 232 232 230 226 224 222 221 220 219 219 220 221 221 221 220 219 219 218 217 216 217 219 219 220 222 222 223 225 227 228 227 227 227 227 226 225 222 220 219 218 217 217 216 215 214 213 214 214 213 212 210 209 207 206 206 206 207 207 208 209 210 211 213 214 216 217 218 220 222 223 225 227 228
225 225 226 227 228 229 229 228 228 227 226 226 226 227 228 228 227 225 224 222 219 217 217 218 219 219 219 218 217 217 217 217 217 217 218 217 219 222 223 224 225 226 225 224 223 223 224 223 221 219 217 216 215 215 214 214 213 213 212 212 212 212 211 210 208 207 206 206 206 207 208 208 210 211 213 215 216 219 221 223 225 227 229 231 232 233
222 222 222 222 223 223 222 222 221 221 220 220 220 221 222 223 223 223 223 221 219 216 215 215 216 217 217 217 216 215 215 216 217 218 218 217 219 222 223 222 223 224 223 220 218 218 219 218 216 215 213 213 213 213 213 213 212 212 212 211 211 210 210 209 208 207 207 207 206 207 207 208 209 211 213 215 217 220 223 226 229 231 234 236 238 239
221 220 219 220 219 219 218 217 216 215 215 215 215 216 217 218 218 219 219 218 217 216 214 214 215 216 217 217 216 215 215 215 217 218 219 218 221 223 221 219 220 221 220 217 215 214 215 213 212 211 211 210 210 211 211 212 212 212 212 211 210 209 208 208 208 207 206 206 206 207 207 208 209 211 213 216 218 220 224 227 229 232 235 238 240 241
220 219 219 219 218 217 216 215 214 213 213 213 213 214 215 216 216 216 215 214 214 214 215 216 218 219 220 222 222 222 221 219 219 220 220 219 222 223 220 217 217 217 216 215 214 213 213 211 208 207 208 208 208 209 210 211 211 212 212 211 210 208 207 207 207 206 206 206 206 207 207 208 209 211 214 216 219 221 223 226 229 231 234 236 239 240
221 221 220 220 220 218 217 216 215 215 214 214 214 214 214 215 215 214 212 211 211 212 214 217 220 221 222 224 226 228 228 224 222 222 222 221 221 220 217 215 214 213 213 212 212 213 213 211 207 205 206 207 207 208 209 210 211 211 211 211 209 207 206 207 207 205 205 205 206 207 208 209 211 213 215 217 219 222 224 227 230 232 233 235 238 240
223 223 223 222 222 220 219 218 217 216 216 216 215 214 214 213 212 211 210 209 209 211 213 215 218 220 222 223 224 225 226 223 220 220 221 221 219 217 213 211 211 210 209 209 209 211 212 211 208 206 206 206 207 207 208 208 210 210 210 210 208 207 206 207 206 205 204 205 205 206 208 210 211 213 216 218 221 223 226 229 231 234 236 237 239 241
224 224 223 223 222 221 220 219 217 217 216 215 215 214 213 212 211 211 211 211 212 213 214 215 216 217 219 221 222 222 220 216 215 215 217 217 216 213 210 209 209 208 208 207 207 208 209 208 207 206 206 206 206 206 206 207 208 209 209 208 207 207 207 207 206 205 204 204 205 206 208 210 212 214 217 220 223 225 229 232 234 237 239 241 242 243
224 224 223 223 222 221 220 218 217 216 215 214 213 213 212 212 211 212 213 215 216 217 218 218 218 218 219 219 219 218 214 210 210 211 213 212 211 209 209 208 207 207 207 207 206 206 206 206 206 206 206 206 205 205 204 205 206 207 208 208 208 207 207 207 207 205 205 206 207 208 209 211 213 216 219 222 226 229 232 235 238 240 242 244 245 246
224 224 223 222 221 220 219 218 216 215 214 213 212 212 212 211 212 213 214 216 217 218 219 220 220 221 221 220 218 213 208 206 207 209 209 208 206 206 207 207 206 206 207 207 207 206 206 206 206 206 206 206 206 205 204 204 205 207 209 209 209 209 208 208 208 207 208 209 210 211 212 213 216 219 223 227 231 234 238 240 242 244 246 247 247 248
222 222 222 222 220 219 218 216 215 215 214 212 212 211 211 211 211 212 213 214 215 216 216 217 217 217 217 215 212 207 203 203 205 206 205 204 203 204 204 204 205 205 206 207 207 207 207 207 207 207 207 208 207 206 205 206 208 210 211 211 212 211 211 210 210 210 211 212 213 214 215 216 219 223 227 231 235 240 243 246 247 249 250 250 250 250
220 220 221 221 220 218 216 215 215 214 213 212 211 210 210 210 210 211 211 212 212 212 212 212 212 211 210 208 205 202 200 202 203 202 202 201 201 202 202 203 203 204 204 205 206 207 208 209 209 210 211 212 211 209 207 209 212 214 214 214 214 214 213 212 213 213 214 216 218 219 220 221 224 228 232 236 241 245 248 251 252 253 253 253 253 252
218 219 219 219 218 216 215 215 215 214 212 210 209 208 209 209 209 209 209 209 209 208 208 207 207 206 204 202 200 198 198 200 200 200 200 200 201 201 202 202 203 203 203 203 204 205 207 208 210 211 213 215 216 213 209 211 214 216 216 217 218 217 217 217 217 217 218 219 222 224 226 228 231 235 239 243 247 250 253 255 256 256 256 255 254 254
217 217 217 216 215 215 216 216 214 212 209 207 206 206 207 207 207 206 206 205 205 204 204 203 202 201 200 198 196 196 196 197 198 198 199 200 201 202 202 202 202 203 203 203 204 205 206 207 209 211 213 215 216 214 212 213 215 217 219 220 221 221 221 220 221 221 222 223 225 228 231 234 238 243 246 250 253 256 258 258 259 258 258 257 255 254
217 215 214 213 214 215 216 214 211 208 206 205 205 205 205 205 205 204 203 202 201 201 200 199 199 198 196 195 194 194 194 195 196 197 198 200 201 202 203 203 203 203 203 204 205 206 207 208 210 212 214 215 216 216 216 215 217 219 221 222 223 224 223 224 224 225 227 229 231 233 237 241 246 250 254 257 259 260 261 261 261 260 258 257 256 255
215 214 214 214 215 216 214 211 207 204 204 204 204 204 203 203 203 202 202 201 199 198 197 196 196 195 194 193 192 192 193 194 195 196 197 199 200 202 203 203 203 204 205 206 207 208 209 210 212 213 215 216 217 219 220 218 219 221 222 223 226 228 230 228 228 229 231 234 236 239 243 248 252 256 260 262 263 263 263 263 262 261 260 258 256 255
213 213 214 215 215 213 211 207 204 203 203 203 203 202 202 201 201 201 200 199 198 197 196 195 194 193 193 192 192 192 193 194 195 196 198 199 200 201 202 202 203 204 206 207 208 210 211 212 213 215 216 217 218 220 222 222 221 222 224 225 227 230 233 234 232 231 233 237 241 244 248 253 257 262 264 266 266 265 264 264 263 261 260 258 256 254
212 213 214 213 211 208 206 205 203 203 203 203 202 201 200 200 199 199 198 197 196 195 194 193 192 192 193 193 193 193 193 194 195 196 198 199 200 201 201 202 203 205 206 208 209 210 211 212 214 215 216 217 218 220 222 223 223 223 224 225 227 229 232 235 236 235 235 240 245 249 253 258 263 266 268 269 269 268 266 264 262 261 259 258 256 254
213 213 212 210 207 205 204 203 203 203 203 203 202 200 199 198 198 197 196 195 194 193 192 192 192 193 193 193 193 194 194 195 196 197 198 199 200 201 201 202 203 205 207 208 210 211 211 212 213 214 214 215 217 219 221 221 222 223 224 225 226 227 231 235 237 239 241 245 250 254 259 263 267 269 270 270 269 268 267 265 262 260 258 257 255 253
213 212 210 206 204 202 202 202 202 202 202 202 200 199 198 197 197 196 194 193 192 192 192 191 192 194 195 194 194 195 195 196 196 197 198 199 200 201 202 202 204 205 207 209 210 212 213 214 214 214 214 214 215 217 218 220 220 221 223 224 225 227 231 236 240 244 247 251 256 260 264 266 268 269 269 269 268 267 266 264 262 260 258 257 255 254
211 210 207 204 202 201 201 201 201 201 202 201 199 197 197 196 195 195 193 192 191 191 191 192 193 194 195 195 195 196 196 197 198 198 199 200 201 202 202 203 204 206 207 208 210 211 212 214 214 214 214 214 214 214 215 217 218 220 222 224 226 228 232 238 243 248 252 256 261 264 267 268 269 268 268 267 266 265 264 262 260 259 257 256 255 254
209 207 204 202 201 201 201 201 201 201 201 200 198 196 195 194 194 193 193 192 191 191 192 192 193 193 194 194 194 195 196 197 198 199 199 200 201 202 203 204 205 205 206 207 208 209 209 210 211 211 212 212 212 212 212 214 216 218 221 224 228 231 236 242 247 251 255 259 263 266 267 268 267 266 266 266 265 264 262 260 258 257 256 255 255 254
207 205 203 202 202 202 202 201 201 200 200 198 196 194 193 193 192 192 191 191 191 191 192 192 193 193 194 194 194 194 196 197 198 198 199 200 201 202 203 204 204 204 205 206 206 206 207 208 209 210 210 209 209 210 211 213 216 219 222 226 231 236 241 247 251 255 258 260 262 264 264 264 263 262 262 263 263 262 262 260 258 257 255 254 254 254
205 204 202 202 202 202 202 201 200 199 198 197 195 193 192 191 191 190 190 190 190 190 191 191 192 193 194 194 194 194 196 197 197 197 198 199 201 202 203 204 204 204 203 204 204 204 205 205 206 208 210 210 209 209 211 215 219 222 225 230 235 239 244 249 253 257 259 260 260 260 259 258 258 258 258 259 260 260 261 261 260 258 257 255 253 253